[[{"header":{"parameterUnit":"m.s-1","parameterCategory":1,"la1":30.2991,"la2":30.254,"lo1":-89.0895,"lo2":-89.0444,"dy":0.0017,"dx":0.0017,"nx":28,"ny":28,"refTime":"2025-08-06T21:00:00:Z","depth":0,"parameterNumber":2,"parameterNumberName":"U-component_of_WINDS"},"data":[0,0,0,0,0,0,0,0,0,0,0,0,0,0,0,0,0,0,0,0,0,0,0,0,0,0,0,0,0,0,0,0,0,0,0,0,0,0,0,0,0,0,0,0,0,0,0,0,0,0,0,0,0,0,0,0,0,0,-0.5092,-0.5091,0,-0.5052,-0.5052,-0.5051,-0.5039,-0.5039,-0.5039,-0.5039,-0.4998,-0.4996,-0.4995,0,0,0,0,0,0,0,0,0,0,0,0,0,-0.5155,-0.5154,-0.5092,-0.5091,-0.5091,-0.5052,-0.5052,-0.5051,-0.5039,-0.5039,-0.5039,-0.5039,-0.4998,-0.4997,-0.4995,0,0,0,0,0,0,0,0,0,0,0,0,0,-0.5123,-0.5153,-0.5092,-0.508,-0.5078,-0.5053,-0.5052,-0.5051,-0.5038,-0.5039,-0.5039,-0.5039,-0.4999,-0.4997,-0.4995,-0.4978,0,0,-0.4989,-0.4988,0,0,0,0,0,0,0,0,-0.5124,-0.512,-0.5082,-0.508,-0.5079,-0.5051,-0.5059,-0.5027,-0.5038,-0.5054,-0.5039,-0.5039,-0.5015,-0.5012,-0.5004,-0.4976,-0.4974,-0.4989,-0.4988,-0.4987,-0.4986,0,0,0,0,0,0,0,-0.5127,-0.5122,-0.5076,-0.5081,-0.5079,-0.5076,-0.5072,-0.5053,-0.5033,-0.5052,-0.5051,-0.5047,-0.5014,-0.5006,-0.5003,-0.4974,-0.4989,-0.4987,-0.4986,-0.4985,-0.493,-0.493,0,0,0,0,0,0,-0.5131,-0.5124,-0.5077,-0.5075,-0.5103,-0.5075,-0.507,-0.5059,-0.5033,-0.503,-0.5047,-0.5046,-0.5009,-0.5005,-0.5001,-0.498,-0.4987,-0.4985,-0.4984,-0.493,-0.493,-0.4929,0,0,0,0,0,0,-0.5132,-0.5127,-0.5079,-0.5099,-0.5093,-0.5073,-0.5062,-0.5058,-0.505,-0.5029,-0.5026,-0.5042,-0.5009,-0.5004,-0.4984,-0.4978,-0.4984,-0.4983,-0.4931,-0.493,-0.493,-0.4936,0,0,0,0,0,0,-0.5134,-0.5128,-0.5121,-0.5099,-0.5092,-0.5063,-0.5061,-0.5058,-0.5047,-0.5046,-0.5023,-0.502,-0.5009,-0.4987,-0.4982,-0.4975,-0.4981,-0.4931,-0.493,-0.493,-0.4937,-0.4936,-0.4936,0,0,0,0,0,-0.5137,-0.5124,-0.5121,-0.5115,-0.5083,-0.5062,-0.5058,-0.5046,-0.5046,-0.504,-0.5026,-0.5021,-0.498,-0.4985,-0.4979,-0.4972,-0.4931,-0.4931,-0.493,-0.4937,-0.4936,-0.4936,0,0,0,0,0,0,-0.5146,-0.5121,-0.5117,-0.5097,-0.5082,-0.506,-0.5051,-0.5045,-0.5029,-0.5029,-0.5014,-0.5009,-0.499,-0.4979,-0.4986,-0.4954,-0.4955,-0.4953,-0.4962,-0.4962,-0.4961,-0.4964,-0.4979,0,0,0,0,0,-0.5146,-0.5131,-0.511,-0.5095,-0.5087,-0.5071,-0.5061,-0.5053,-0.5036,-0.5029,-0.5015,-0.4998,-0.4982,-0.4971,-0.4955,-0.4935,-0.493,-0.4927,-0.4927,-0.4927,-0.4925,-0.4914,-0.4913,-0.4927,-0.4927,-0.4927,0,0,-0.5145,-0.513,-0.5121,-0.5096,-0.5083,-0.5068,-0.5065,-0.5049,-0.5038,-0.5027,-0.5007,-0.4996,-0.4977,-0.4957,-0.4947,-0.4947,-0.492,-0.4926,-0.4926,-0.4924,-0.4913,-0.4912,-0.4911,-0.4926,-0.4927,-0.4927,0,0,-0.5136,-0.5123,-0.5109,-0.5096,-0.5077,-0.5066,-0.5062,-0.5041,-0.5034,-0.5014,-0.5005,-0.4991,-0.4963,-0.495,-0.4939,-0.4926,-0.492,-0.4921,-0.4919,-0.4908,-0.4907,-0.4906,-0.4901,-0.4899,-0.492,-0.492,-0.492,0,-0.5137,-0.5114,-0.5102,-0.5086,-0.5076,-0.5066,-0.5051,-0.5039,-0.5016,-0.5008,-0.5008,-0.4973,-0.4959,-0.4936,-0.4933,-0.4925,-0.492,-0.4923,-0.4908,-0.4907,-0.4906,-0.4901,-0.4899,-0.492,-0.492,-0.492,-0.492,0,-0.5117,-0.5101,-0.5092,-0.507,-0.5058,-0.5043,-0.5028,-0.5018,-0.5011,-0.5,-0.498,-0.4963,-0.4943,-0.4937,-0.493,-0.4913,-0.4913,-0.4911,-0.4911,-0.4905,-0.49,-0.4898,-0.492,-0.492,-0.492,-0.492,0,0,-0.5112,-0.5084,-0.508,-0.507,-0.5049,-0.5036,-0.5021,-0.5002,-0.4993,-0.4977,-0.4963,-0.494,-0.4938,-0.4926,-0.4917,-0.4908,-0.4898,-0.4906,-0.4906,-0.4905,-0.4878,-0.488,-0.4878,-0.4894,-0.4894,-0.4893,-0.4879,0,-0.51,-0.5072,-0.5061,-0.5038,-0.5024,-0.5014,-0.5001,-0.4986,-0.4975,-0.4961,-0.4949,-0.4933,-0.4931,-0.4924,-0.4914,-0.4901,-0.4892,-0.4902,-0.4881,-0.488,-0.4886,-0.4875,-0.4877,-0.4864,-0.4877,-0.4877,-0.4877,0,-0.5082,-0.5067,-0.5043,-0.5023,-0.5016,-0.5004,-0.4986,-0.4973,-0.4956,-0.4949,-0.4936,-0.4928,-0.4911,-0.4913,-0.4889,-0.4896,-0.4887,-0.4879,-0.4878,-0.4876,-0.4878,-0.4872,-0.486,-0.4858,-0.4874,-0.4874,-0.4874,0,-0.5081,-0.5054,-0.5036,-0.5028,-0.5004,-0.4996,-0.4986,-0.4969,-0.4958,-0.4942,-0.4935,-0.4917,-0.4908,-0.4894,-0.4881,-0.4883,-0.4859,-0.4859,-0.4852,-0.4852,-0.4847,-0.4847,-0.4833,-0.4841,-0.4841,-0.4841,-0.4841,0,-0.5069,-0.5054,-0.5035,-0.5024,-0.5008,-0.4995,-0.4979,-0.4968,-0.4953,-0.494,-0.4931,-0.4918,-0.4902,-0.4888,-0.4878,-0.4859,-0.4855,-0.4849,-0.4846,-0.4849,-0.485,-0.4843,-0.4843,-0.4841,-0.4841,-0.4841,-0.4841,0,-0.5064,-0.5051,-0.5031,-0.501,-0.5005,-0.4994,-0.4976,-0.4965,-0.4954,-0.4937,-0.4933,-0.4916,-0.4898,-0.4884,-0.4861,-0.4854,-0.4835,-0.4832,-0.4841,-0.4839,-0.4833,-0.4833,-0.4813,-0.481,-0.4821,-0.482,-0.482,0,-0.5057,-0.5046,-0.5024,-0.5015,-0.5005,-0.499,-0.4979,-0.4966,-0.4955,-0.4934,-0.4926,-0.4908,-0.4892,-0.4865,-0.485,-0.4832,-0.4829,-0.4823,-0.4826,-0.4829,-0.4828,-0.4829,-0.4827,-0.4822,-0.4822,-0.4822,-0.4822,0,-0.5046,-0.504,-0.5025,-0.5007,-0.4995,-0.498,-0.4966,-0.4958,-0.4943,-0.4931,-0.4913,-0.4901,-0.4878,-0.486,-0.484,-0.483,-0.4823,-0.4821,-0.4819,-0.4822,-0.4827,-0.4824,-0.4839,-0.4822,-0.4822,-0.4822,-0.4822,-0.4822,-0.5039,-0.5029,-0.5012,-0.4996,-0.4984,-0.497,-0.4959,-0.4947,-0.4932,-0.4912,-0.4905,-0.4886,-0.487,-0.4843,-0.4832,-0.4817,-0.4817,-0.4813,-0.4812,-0.4811,-0.4811,-0.483,-0.4814,-0.4814,-0.4814,-0.4814,-0.4814,0,-0.5027,-0.5016,-0.5001,-0.4981,-0.4968,-0.4964,-0.4948,-0.4937,-0.4921,-0.4906,-0.4891,-0.4871,-0.4853,-0.4837,-0.4819,-0.481,-0.4807,-0.4806,-0.4806,-0.4803,-0.4813,-0.4817,-0.4809,-0.4809,-0.4809,-0.4809,-0.4809,-0.4809,-0.502,-0.5002,-0.4994,-0.497,-0.4959,-0.4941,-0.4932,-0.4919,-0.4907,-0.4885,-0.4871,-0.486,-0.4845,-0.4825,-0.4809,-0.4805,-0.4798,-0.4798,-0.4793,-0.4802,-0.4803,-0.4803,-0.4807,-0.4797,-0.4797,-0.4785,-0.4785,-0.4785]},{"header":{"parameterUnit":"m.s-1","parameterCategory":1,"la1":30.2991,"la2":30.254,"lo1":-89.0895,"lo2":-89.0444,"dy":0.0017,"dx":0.0017,"nx":28,"ny":28,"refTime":"2025-08-06T21:00:00:Z","depth":0,"parameterNumber":3,"parameterNumberName":"V-component_of_WINDS"},"data":[0,0,0,0,0,0,0,0,0,0,0,0,0,0,0,0,0,0,0,0,0,0,0,0,0,0,0,0,0,0,0,0,0,0,0,0,0,0,0,0,0,0,0,0,0,0,0,0,0,0,0,0,0,0,0,0,0,0,1.6084,1.6084,0,1.6021,1.6021,1.602,1.5954,1.5953,1.5952,1.5951,1.5888,1.5887,1.5886,0,0,0,0,0,0,0,0,0,0,0,0,0,1.6146,1.6146,1.6084,1.6084,1.6083,1.6022,1.6021,1.602,1.5954,1.5953,1.5952,1.5951,1.5888,1.5887,1.5886,0,0,0,0,0,0,0,0,0,0,0,0,0,1.6105,1.6145,1.6085,1.6043,1.6038,1.6022,1.6021,1.602,1.5955,1.5953,1.5952,1.5951,1.5888,1.5887,1.5886,1.5905,0,0,1.5882,1.5881,0,0,0,0,0,0,0,0,1.6108,1.6103,1.605,1.6046,1.6041,1.5994,1.6019,1.5981,1.5955,1.5986,1.5951,1.595,1.5924,1.592,1.5911,1.5902,1.59,1.5882,1.5881,1.588,1.588,0,0,0,0,0,0,0,1.6111,1.6105,1.6059,1.6049,1.6043,1.6027,1.6019,1.6012,1.5964,1.5984,1.5979,1.5972,1.5922,1.5913,1.5909,1.5899,1.5882,1.5881,1.588,1.5879,1.5899,1.5901,0,0,0,0,0,0,1.612,1.6108,1.6061,1.6058,1.6071,1.6027,1.6018,1.6011,1.5964,1.5955,1.5973,1.5969,1.5915,1.5911,1.5907,1.5924,1.588,1.5879,1.5879,1.5898,1.59,1.5901,0,0,0,0,0,0,1.6121,1.6116,1.6064,1.6081,1.6074,1.6027,1.6019,1.601,1.6001,1.5956,1.5947,1.5973,1.5914,1.5908,1.5905,1.5921,1.5879,1.5878,1.5897,1.5899,1.59,1.5961,0,0,0,0,0,0,1.6124,1.6117,1.6125,1.6082,1.6073,1.6065,1.602,1.601,1.5999,1.5993,1.5953,1.5945,1.5913,1.5908,1.5904,1.5919,1.5877,1.5895,1.5898,1.59,1.5958,1.5965,1.5972,0,0,0,0,0,1.6126,1.6145,1.6126,1.612,1.6081,1.6066,1.606,1.6022,1.6001,1.6007,1.5978,1.5947,1.592,1.5908,1.5903,1.5918,1.5894,1.5897,1.59,1.5955,1.5964,1.5971,0,0,0,0,0,0,1.6192,1.6139,1.6117,1.6123,1.6099,1.6055,1.6062,1.6033,1.6015,1.6011,1.5964,1.5956,1.5957,1.5937,1.5925,1.5933,1.5902,1.5905,1.5946,1.5954,1.5961,1.5965,1.5876,0,0,0,0,0,1.6207,1.6199,1.6153,1.6163,1.6152,1.6109,1.6101,1.6073,1.6047,1.6037,1.6007,1.5983,1.5968,1.596,1.5945,1.5955,1.5944,1.5962,1.5969,1.5975,1.5977,1.5978,1.5985,1.5911,1.5911,1.5911,0,0,1.6239,1.6209,1.6207,1.6175,1.6154,1.6145,1.6101,1.6095,1.6088,1.6036,1.603,1.6008,1.5977,1.598,1.598,1.5963,1.5995,1.5979,1.5984,1.5982,1.5982,1.5989,1.5995,1.5913,1.5912,1.5912,0,0,1.6291,1.6269,1.6273,1.6252,1.6219,1.619,1.6191,1.615,1.6133,1.6127,1.6086,1.6077,1.6055,1.6034,1.602,1.6062,1.6032,1.6058,1.6094,1.6096,1.6101,1.6106,1.6119,1.6125,1.6061,1.6061,1.6061,0,1.6335,1.6321,1.6279,1.6275,1.6261,1.6212,1.6216,1.6197,1.6162,1.6153,1.6135,1.6103,1.608,1.6075,1.6085,1.6077,1.6075,1.6063,1.6104,1.6109,1.6112,1.6124,1.613,1.6064,1.6064,1.6064,1.6063,0,1.6374,1.6366,1.6373,1.6338,1.6326,1.6326,1.6283,1.6275,1.6248,1.622,1.6213,1.6183,1.6159,1.6156,1.613,1.6147,1.6138,1.6113,1.6081,1.6124,1.6134,1.6138,1.6069,1.6068,1.6067,1.6066,0,0,1.6468,1.6409,1.6412,1.6395,1.6354,1.6346,1.6343,1.6319,1.6312,1.6289,1.6283,1.6264,1.6239,1.6224,1.6195,1.6196,1.6229,1.617,1.6169,1.6181,1.6243,1.6261,1.6268,1.6209,1.6209,1.621,1.6245,0,1.6513,1.6504,1.6465,1.6467,1.6457,1.6409,1.6405,1.638,1.6353,1.634,1.6311,1.6297,1.6267,1.6257,1.6256,1.6225,1.624,1.6222,1.6202,1.6202,1.621,1.6273,1.6293,1.6328,1.6249,1.625,1.625,0,1.6564,1.6542,1.6543,1.65,1.6495,1.6492,1.6466,1.6455,1.6423,1.6404,1.6385,1.6352,1.6344,1.6315,1.6302,1.6291,1.628,1.6263,1.6264,1.626,1.6228,1.627,1.6338,1.6343,1.6256,1.6256,1.6255,0,1.663,1.6601,1.6597,1.6584,1.6535,1.6534,1.6513,1.648,1.6468,1.6445,1.6435,1.6412,1.6399,1.6381,1.6342,1.6324,1.6332,1.6301,1.6315,1.6316,1.6318,1.6319,1.6385,1.6314,1.6314,1.6314,1.6313,0,1.6683,1.6685,1.6626,1.6623,1.6623,1.6578,1.6579,1.6554,1.6525,1.6516,1.6473,1.6465,1.6414,1.64,1.6369,1.6362,1.6357,1.634,1.6332,1.6343,1.6345,1.6335,1.6331,1.6315,1.6315,1.6314,1.6314,0,1.6757,1.6718,1.671,1.6663,1.6651,1.6653,1.6612,1.6607,1.6578,1.6566,1.6561,1.6514,1.6495,1.6454,1.6424,1.6403,1.6403,1.6389,1.6413,1.6408,1.6424,1.6422,1.6485,1.649,1.6417,1.6418,1.6419,0,1.6793,1.6793,1.6746,1.6737,1.6717,1.6703,1.6689,1.6644,1.6631,1.6594,1.6593,1.6571,1.655,1.6521,1.6484,1.646,1.6444,1.6468,1.6441,1.6451,1.6443,1.6443,1.6441,1.6474,1.6475,1.6476,1.6477,0,1.6861,1.6841,1.6823,1.6798,1.6782,1.676,1.6736,1.673,1.6679,1.6667,1.6646,1.663,1.6598,1.6575,1.6545,1.6523,1.6491,1.6485,1.6487,1.6499,1.6512,1.6503,1.6429,1.6484,1.6483,1.6483,1.6482,1.6482,1.6916,1.6913,1.6879,1.6859,1.6836,1.6813,1.6805,1.6774,1.6756,1.6727,1.6701,1.6682,1.6648,1.6604,1.6584,1.6567,1.6552,1.6555,1.6555,1.6556,1.6561,1.6515,1.6562,1.6562,1.6561,1.6561,1.6561,0,1.698,1.6955,1.6938,1.6904,1.6889,1.6859,1.683,1.6819,1.6803,1.6774,1.6754,1.6729,1.6706,1.6666,1.6639,1.6634,1.6618,1.6628,1.6628,1.6623,1.6577,1.6577,1.6641,1.6641,1.6641,1.6641,1.6641,1.6641,1.7012,1.7004,1.698,1.696,1.6934,1.6915,1.6901,1.6879,1.6855,1.6829,1.681,1.6784,1.675,1.672,1.6697,1.6686,1.6677,1.6692,1.6676,1.6634,1.6626,1.6619,1.6619,1.6691,1.6691,1.6722,1.6722,1.6723]}]]